{"data":{"norad_id":57258,"intl_designator":"2023-094AS","name":"STARLINK-5476","alt_names":[],"object_type":"PAYLOAD","status":"ACTIVE","operator":null,"country":"US","launch_date":"2023-07-07","launch_site_code":"AFWTR","launch_vehicle":null,"mission":null,"orbit_class":"UNKNOWN","rcs_meters":null,"size_class":null,"mass_kg":null,"dimensions":null,"purposes":["comms"],"wikipedia_slug":null,"has_3d_model":false,"image_url":null,"decayed_at":null,"tle_current":{"epoch":"2026-09-20T17:57:46.238976Z","epoch_age_seconds":102656,"freshness":"FRESH","line1":"1 57258U 23094AS  26263.74845184  .00000147  00000+0  14870-4 0  9990","line2":"2 57258  43.0030 358.1310 0001204 271.5346  88.5368 15.27579726177076","mean_motion":15.27579726,"eccentricity":0.0001204,"inclination_deg":43.003,"raan_deg":358.131,"arg_perigee_deg":271.5346,"mean_anomaly_deg":88.5368,"bstar":1.487e-5,"rev_number":17707,"period_min":94.266765622156,"perigee_km":482.2238295896,"apogee_km":483.87600339909,"semimajor_km":6861.1869164943,"source":"CELESTRAK","updated_at":"2026-09-21T09:00:33.592888Z"}}}